"Sample Date","Sample Time","Sensor Name","Sample Value","Units","Flow Rate","Sample Interval","Sample Volume","Laser Status","Number Channels","Micron Size 0","Counts/Channel 0","Micron Size 1","Counts/Channel 1","Micron Size 2","Counts/Channel 2","Micron Size 3","Counts/Channel 3","Micron Size 4","Counts/Channel 4","Micron Size 5","Counts/Channel 5","Micron Size 6","Counts/Channel 6","Micron Size 7","Counts/Channel 7","Micron Size 8","Counts/Channel 8","Micron Size 9","Counts/Channel 9","Micron Size 10","Counts/Channel 10","Micron Size 11","Counts/Channel 11","Micron Size 12","Counts/Channel 12","Micron Size 13","Counts/Channel 13","Micron Size 14","Counts/Channel 14","Micron Size 15","Counts/Channel 15","Micron Size 16","Counts/Channel 16","Micron Size 17","Counts/Channel 17","Micron Size 18","Counts/Channel 18","Micron Size 19","Counts/Channel 19","Micron Size 20","Counts/Channel 20","Micron Size 21","Counts/Channel 21","Micron Size 22","Counts/Channel 22","Micron Size 23","Counts/Channel 23","Micron Size 24","Counts/Channel 24","Micron Size 25","Counts/Channel 25","Micron Size 26","Counts/Channel 26","Micron Size 27","Counts/Channel 27","Micron Size 28","Counts/Channel 28","Micron Size 29","Counts/Channel 29","Micron Size 30","Counts/Channel 30","Micron Size 31","Counts/Channel 31"
"07/08/06","13:00:02","AMMA06",37015.000,"cc",28295.166,6.00,2829.517,1,6,0.100,20544.000,0.200,13348.000,0.300,2271.000,0.500,568.000,1.000,284.000,5.000,0
"07/08/06","13:00:08","AMMA06",36853.000,"cc",28293.764,6.00,2829.377,1,6,0.100,20672.000,0.200,13078.000,0.300,2263.000,0.500,558.000,1.000,282.000,5.000,0
"07/08/06","13:00:14","AMMA06",36238.000,"cc",28318.123,6.00,2831.813,1,6,0.100,20343.000,0.200,13082.000,0.300,2073.000,0.500,499.000,1.000,241.000,5.000,0
"07/08/06","13:00:20","AMMA06",38131.000,"cc",28323.922,6.00,2832.392,1,6,0.100,21665.000,0.200,13433.000,0.300,2221.000,0.500,550.000,1.000,262.000,5.000,0
"07/08/06","13:00:26","AMMA06",35183.000,"cc",28347.344,6.00,2834.735,1,6,0.100,19712.000,0.200,12989.000,0.300,1956.000,0.500,345.000,1.000,181.000,5.000,0
"07/08/06","13:00:32","AMMA06",35853.000,"cc",28303.857,6.00,2830.386,1,6,0.100,20301.000,0.200,13007.000,0.300,1968.000,0.500,389.000,1.000,188.000,5.000,0
"07/08/06","13:00:38","AMMA06",38125.000,"cc",28309.291,6.00,2830.929,1,6,0.100,20893.000,0.200,13630.000,0.300,2556.000,0.500,714.000,1.000,332.000,5.000,0
"07/08/06","13:00:44","AMMA06",37228.000,"cc",28287.744,6.00,2828.775,1,6,0.100,20608.000,0.200,13493.000,0.300,2292.000,0.500,542.000,1.000,293.000,5.000,0
"07/08/06","13:00:50","AMMA06",36973.000,"cc",28362.301,6.00,2836.230,1,6,0.100,20544.000,0.200,13235.000,0.300,2333.000,0.500,580.000,1.000,281.000,5.000,0
"07/08/06","13:00:56","AMMA06",36360.000,"cc",28304.018,6.00,2830.402,1,6,0.100,20218.000,0.200,13185.000,0.300,2188.000,0.500,475.000,1.000,294.000,5.000,0
"07/08/06","13:01:02","AMMA06",36095.000,"cc",28335.438,6.00,2833.544,1,6,0.100,20228.000,0.200,12979.000,0.300,2153.000,0.500,482.000,1.000,253.000,5.000,0
"07/08/06","13:01:08","AMMA06",37288.000,"cc",28371.400,6.00,2837.140,1,6,0.100,20654.000,0.200,13474.000,0.300,2312.000,0.500,571.000,1.000,277.000,5.000,0
"07/08/06","13:01:14","AMMA06",35275.000,"cc",28252.877,6.00,2825.288,1,6,0.100,19984.000,0.200,12834.000,0.300,1924.000,0.500,360.000,1.000,173.000,5.000,0
"07/08/06","13:01:20","AMMA06",35532.000,"cc",28262.934,6.00,2826.294,1,6,0.100,20130.000,0.200,12760.000,0.300,2037.000,0.500,385.000,1.000,220.000,5.000,0
"07/08/06","13:01:26","AMMA06",35873.000,"cc",28341.541,6.00,2834.154,1,6,0.100,20400.000,0.200,12942.000,0.300,1902.000,0.500,427.000,1.000,202.000,5.000,0
"07/08/06","13:01:32","AMMA06",35480.000,"cc",28349.666,6.00,2834.967,1,6,0.100,20082.000,0.200,12818.000,0.300,1960.000,0.500,408.000,1.000,212.000,5.000,0
"07/08/06","13:01:38","AMMA06",35397.000,"cc",28279.061,6.00,2827.906,1,6,0.100,20003.000,0.200,12797.000,0.300,1951.000,0.500,425.000,1.000,221.000,5.000,0
"07/08/06","13:01:44","AMMA06",36510.000,"cc",28337.410,6.00,2833.741,1,6,0.100,20661.000,0.200,12897.000,0.300,2128.000,0.500,540.000,1.000,284.000,5.000,0
"07/08/06","13:01:50","AMMA06",36357.000,"cc",28345.199,6.00,2834.520,1,6,0.100,20318.000,0.200,13152.000,0.300,2127.000,0.500,513.000,1.000,247.000,5.000,0
"07/08/06","13:01:56","AMMA06",36368.000,"cc",28307.379,6.00,2830.738,1,6,0.100,20317.000,0.200,13074.000,0.300,2153.000,0.500,559.000,1.000,265.000,5.000,0
"07/08/06","13:02:02","AMMA06",35541.000,"cc",28333.551,6.00,2833.355,1,6,0.100,20149.000,0.200,12762.000,0.300,1945.000,0.500,439.000,1.000,246.000,5.000,0
"07/08/06","13:02:08","AMMA06",35169.000,"cc",28317.547,6.00,2831.755,1,6,0.100,20053.000,0.200,12664.000,0.300,1846.000,0.500,397.000,1.000,209.000,5.000,0
"07/08/06","13:02:14","AMMA06",35225.000,"cc",28287.611,6.00,2828.761,1,6,0.100,20087.000,0.200,12665.000,0.300,1903.000,0.500,363.000,1.000,207.000,5.000,0
"07/08/06","13:02:20","AMMA06",34569.000,"cc",28323.133,6.00,2832.314,1,6,0.100,19696.000,0.200,12534.000,0.300,1820.000,0.500,344.000,1.000,175.000,5.000,0
"07/08/06","13:02:26","AMMA06",35232.000,"cc",28321.045,6.00,2832.105,1,6,0.100,19881.000,0.200,12882.000,0.300,1896.000,0.500,383.000,1.000,190.000,5.000,0
"07/08/06","13:02:32","AMMA06",35056.000,"cc",28323.805,6.00,2832.381,1,6,0.100,19923.000,0.200,12730.000,0.300,1859.000,0.500,347.000,1.000,197.000,5.000,0
"07/08/06","13:02:38","AMMA06",35048.000,"cc",28309.482,6.00,2830.949,1,6,0.100,19847.000,0.200,12922.000,0.300,1810.000,0.500,301.000,1.000,168.000,5.000,0
"07/08/06","13:02:44","AMMA06",34690.000,"cc",28295.566,6.00,2829.557,1,6,0.100,19728.000,0.200,12813.000,0.300,1685.000,0.500,290.000,1.000,174.000,5.000,0
"07/08/06","13:02:50","AMMA06",39683.000,"cc",28324.938,6.00,2832.494,1,6,0.100,21648.000,0.200,13954.000,0.300,2831.000,0.500,887.000,1.000,363.000,5.000,0
"07/08/06","13:02:56","AMMA06",39816.000,"cc",28334.727,6.00,2833.473,1,6,0.100,21650.000,0.200,14016.000,0.300,2853.000,0.500,916.000,1.000,381.000,5.000,0
"07/08/06","13:03:02","AMMA06",36674.000,"cc",28323.043,6.00,2832.304,1,6,0.100,20468.000,0.200,13194.000,0.300,2209.000,0.500,544.000,1.000,259.000,5.000,0
"07/08/06","13:03:08","AMMA06",35829.000,"cc",28308.793,6.00,2830.879,1,6,0.100,20248.000,0.200,12962.000,0.300,2015.000,0.500,398.000,1.000,206.000,5.000,0
"07/08/06","13:03:14","AMMA06",35643.000,"cc",28311.508,6.00,2831.151,1,6,0.100,20217.000,0.200,12762.000,0.300,2054.000,0.500,395.000,1.000,215.000,5.000,0
"07/08/06","13:03:20","AMMA06",35795.000,"cc",28341.059,6.00,2834.106,1,6,0.100,20454.000,0.200,12822.000,0.300,1956.000,0.500,359.000,1.000,204.000,5.000,0
"07/08/06","13:03:26","AMMA06",35300.000,"cc",28284.824,6.00,2828.483,1,6,0.100,20003.000,0.200,12886.000,0.300,1874.000,0.500,340.000,1.000,197.000,5.000,0
"07/08/06","13:03:32","AMMA06",35320.000,"cc",28339.990,6.00,2833.999,1,6,0.100,20104.000,0.200,12630.000,0.300,1977.000,0.500,406.000,1.000,203.000,5.000,0
"07/08/06","13:03:38","AMMA06",35611.000,"cc",28280.904,6.00,2828.091,1,6,0.100,20195.000,0.200,12796.000,0.300,2017.000,0.500,391.000,1.000,212.000,5.000,0
"07/08/06","13:03:44","AMMA06",35885.000,"cc",28295.846,6.00,2829.585,1,6,0.100,20250.000,0.200,13017.000,0.300,1996.000,0.500,406.000,1.000,216.000,5.000,0
"07/08/06","13:03:50","AMMA06",35500.000,"cc",28317.422,6.00,2831.742,1,6,0.100,20023.000,0.200,12890.000,0.300,2051.000,0.500,360.000,1.000,176.000,5.000,0
"07/08/06","13:03:56","AMMA06",35806.000,"cc",28339.832,6.00,2833.983,1,6,0.100,20199.000,0.200,12925.000,0.300,2070.000,0.500,411.000,1.000,201.000,5.000,0
"07/08/06","13:04:02","AMMA06",37530.000,"cc",28301.484,6.00,2830.149,1,6,0.100,21054.000,0.200,13270.000,0.300,2296.000,0.500,619.000,1.000,291.000,5.000,0
"07/08/06","13:04:08","AMMA06",36124.000,"cc",28348.510,6.00,2834.851,1,6,0.100,20448.000,0.200,12874.000,0.300,2121.000,0.500,425.000,1.000,256.000,5.000,0
"07/08/06","13:04:14","AMMA06",35489.000,"cc",28339.857,6.00,2833.986,1,6,0.100,20142.000,0.200,12725.000,0.300,1987.000,0.500,417.000,1.000,218.000,5.000,0
"07/08/06","13:04:20","AMMA06",35624.000,"cc",28317.514,6.00,2831.752,1,6,0.100,20047.000,0.200,12951.000,0.300,2056.000,0.500,357.000,1.000,213.000,5.000,0
"07/08/06","13:04:26","AMMA06",36144.000,"cc",28341.754,6.00,2834.176,1,6,0.100,20383.000,0.200,12913.000,0.300,2134.000,0.500,460.000,1.000,254.000,5.000,0
"07/08/06","13:04:32","AMMA06",35507.000,"cc",28277.193,6.00,2827.720,1,6,0.100,19821.000,0.200,12874.000,0.300,2139.000,0.500,427.000,1.000,246.000,5.000,0
"07/08/06","13:04:38","AMMA06",35595.000,"cc",28290.473,6.00,2829.047,1,6,0.100,20321.000,0.200,12526.000,0.300,2126.000,0.500,402.000,1.000,220.000,5.000,0
"07/08/06","13:04:44","AMMA06",35151.000,"cc",28341.270,6.00,2834.127,1,6,0.100,20056.000,0.200,12460.000,0.300,2051.000,0.500,371.000,1.000,213.000,5.000,0
"07/08/06","13:04:50","AMMA06",35199.000,"cc",28342.918,6.00,2834.292,1,6,0.100,19873.000,0.200,12778.000,0.300,2003.000,0.500,343.000,1.000,202.000,5.000,0
"07/08/06","13:04:56","AMMA06",35187.000,"cc",28337.182,6.00,2833.718,1,6,0.100,19990.000,0.200,12659.000,0.300,1970.000,0.500,356.000,1.000,212.000,5.000,0
"07/08/06","13:05:02","AMMA06",35275.000,"cc",28262.559,6.00,2826.256,1,6,0.100,19779.000,0.200,12988.000,0.300,1957.000,0.500,337.000,1.000,214.000,5.000,0
"07/08/06","13:05:08","AMMA06",35707.000,"cc",28294.139,6.00,2829.414,1,6,0.100,20165.000,0.200,12904.000,0.300,2053.000,0.500,382.000,1.000,203.000,5.000,0
"07/08/06","13:05:14","AMMA06",35129.000,"cc",28284.520,6.00,2828.452,1,6,0.100,19851.000,0.200,12760.000,0.300,2018.000,0.500,330.000,1.000,170.000,5.000,0
"07/08/06","13:05:20","AMMA06",35499.000,"cc",28337.002,6.00,2833.700,1,6,0.100,20016.000,0.200,12941.000,0.300,2059.000,0.500,302.000,1.000,181.000,5.000,0
"07/08/06","13:05:26","AMMA06",36613.000,"cc",28348.316,6.00,2834.832,1,6,0.100,20469.000,0.200,13258.000,0.300,2157.000,0.500,488.000,1.000,241.000,5.000,0
"07/08/06","13:05:32","AMMA06",36173.000,"cc",28324.242,6.00,2832.424,1,6,0.100,20190.000,0.200,13099.000,0.300,2160.000,0.500,464.000,1.000,260.000,5.000,0
"07/08/06","13:05:38","AMMA06",35868.000,"cc",28317.977,6.00,2831.798,1,6,0.100,20214.000,0.200,12947.000,0.300,2102.000,0.500,388.000,1.000,217.000,5.000,0
"07/08/06","13:05:44","AMMA06",35394.000,"cc",28286.043,6.00,2828.605,1,6,0.100,19841.000,0.200,12912.000,0.300,2109.000,0.500,343.000,1.000,189.000,5.000,0
"07/08/06","13:05:50","AMMA06",35274.000,"cc",28284.092,6.00,2828.409,1,6,0.100,19912.000,0.200,12775.000,0.300,2035.000,0.500,358.000,1.000,194.000,5.000,0
"07/08/06","13:05:56","AMMA06",35903.000,"cc",28333.877,6.00,2833.388,1,6,0.100,20146.000,0.200,13077.000,0.300,2088.000,0.500,384.000,1.000,208.000,5.000,0
"07/08/06","13:06:02","AMMA06",35645.000,"cc",28338.490,6.00,2833.849,1,6,0.100,19982.000,0.200,12981.000,0.300,2116.000,0.500,352.000,1.000,214.000,5.000,0
"07/08/06","13:06:08","AMMA06",35693.000,"cc",28319.697,6.00,2831.970,1,6,0.100,19988.000,0.200,13002.000,0.300,2129.000,0.500,371.000,1.000,203.000,5.000,0
"07/08/06","13:06:14","AMMA06",35319.000,"cc",28288.387,6.00,2828.839,1,6,0.100,19747.000,0.200,12880.000,0.300,2073.000,0.500,392.000,1.000,227.000,5.000,0
"07/08/06","13:06:20","AMMA06",35473.000,"cc",28334.473,6.00,2833.448,1,6,0.100,19890.000,0.200,12896.000,0.300,2115.000,0.500,380.000,1.000,192.000,5.000,0
"07/08/06","13:06:26","AMMA06",35338.000,"cc",28315.135,6.00,2831.514,1,6,0.100,19557.000,0.200,13035.000,0.300,2143.000,0.500,380.000,1.000,223.000,5.000,0
"07/08/06","13:06:32","AMMA06",35203.000,"cc",28258.588,6.00,2825.859,1,6,0.100,19759.000,0.200,12816.000,0.300,2067.000,0.500,363.000,1.000,198.000,5.000,0
"07/08/06","13:06:38","AMMA06",35574.000,"cc",28353.031,6.00,2835.303,1,6,0.100,20083.000,0.200,12827.000,0.300,2097.000,0.500,358.000,1.000,209.000,5.000,0
"07/08/06","13:06:44","AMMA06",35281.000,"cc",28342.865,6.00,2834.287,1,6,0.100,19707.000,0.200,12951.000,0.300,2084.000,0.500,343.000,1.000,196.000,5.000,0
"07/08/06","13:06:50","AMMA06",35414.000,"cc",28301.625,6.00,2830.163,1,6,0.100,19933.000,0.200,12837.000,0.300,2100.000,0.500,342.000,1.000,202.000,5.000,0
"07/08/06","13:06:56","AMMA06",35589.000,"cc",28308.102,6.00,2830.810,1,6,0.100,20074.000,0.200,12853.000,0.300,2042.000,0.500,406.000,1.000,214.000,5.000,0
"07/08/06","13:07:02","AMMA06",35896.000,"cc",28328.740,6.00,2832.874,1,6,0.100,20051.000,0.200,12970.000,0.300,2242.000,0.500,423.000,1.000,210.000,5.000,0
"07/08/06","13:07:08","AMMA06",35859.000,"cc",28311.914,6.00,2831.192,1,6,0.100,20157.000,0.200,12875.000,0.300,2181.000,0.500,416.000,1.000,230.000,5.000,0
"07/08/06","13:07:14","AMMA06",35371.000,"cc",28359.838,6.00,2835.984,1,6,0.100,19924.000,0.200,12758.000,0.300,2132.000,0.500,342.000,1.000,215.000,5.000,0
"07/08/06","13:07:20","AMMA06",35395.000,"cc",28302.174,6.00,2830.218,1,6,0.100,20211.000,0.200,12555.000,0.300,2106.000,0.500,341.000,1.000,182.000,5.000,0
"07/08/06","13:07:26","AMMA06",35883.000,"cc",28260.902,6.00,2826.090,1,6,0.100,20239.000,0.200,12866.000,0.300,2166.000,0.500,404.000,1.000,208.000,5.000,0
"07/08/06","13:07:32","AMMA06",35903.000,"cc",28308.209,6.00,2830.821,1,6,0.100,20274.000,0.200,12905.000,0.300,2107.000,0.500,384.000,1.000,233.000,5.000,0
"07/08/06","13:07:38","AMMA06",35614.000,"cc",28333.510,6.00,2833.351,1,6,0.100,20204.000,0.200,12636.000,0.300,2155.000,0.500,381.000,1.000,238.000,5.000,0
"07/08/06","13:07:44","AMMA06",35180.000,"cc",28330.162,6.00,2833.016,1,6,0.100,20186.000,0.200,12371.000,0.300,2063.000,0.500,341.000,1.000,219.000,5.000,0
"07/08/06","13:07:50","AMMA06",35797.000,"cc",28328.539,6.00,2832.854,1,6,0.100,20117.000,0.200,13016.000,0.300,2072.000,0.500,368.000,1.000,224.000,5.000,0
"07/08/06","13:07:56","AMMA06",35534.000,"cc",28303.607,6.00,2830.361,1,6,0.100,19981.000,0.200,12813.000,0.300,2130.000,0.500,373.000,1.000,237.000,5.000,0
"07/08/06","13:08:02","AMMA06",35578.000,"cc",28303.295,6.00,2830.330,1,6,0.100,20120.000,0.200,12756.000,0.300,2061.000,0.500,427.000,1.000,214.000,5.000,0
"07/08/06","13:08:08","AMMA06",35431.000,"cc",28321.430,6.00,2832.143,1,6,0.100,20134.000,0.200,12698.000,0.300,1977.000,0.500,400.000,1.000,222.000,5.000,0
"07/08/06","13:08:14","AMMA06",35568.000,"cc",28284.082,6.00,2828.408,1,6,0.100,20100.000,0.200,12842.000,0.300,2027.000,0.500,380.000,1.000,219.000,5.000,0
"07/08/06","13:08:20","AMMA06",35249.000,"cc",28311.898,6.00,2831.190,1,6,0.100,19875.000,0.200,12718.000,0.300,2100.000,0.500,357.000,1.000,199.000,5.000,0
"07/08/06","13:08:26","AMMA06",35864.000,"cc",28332.750,6.00,2833.275,1,6,0.100,20348.000,0.200,12763.000,0.300,2107.000,0.500,404.000,1.000,242.000,5.000,0
"07/08/06","13:08:32","AMMA06",35523.000,"cc",28344.795,6.00,2834.480,1,6,0.100,20072.000,0.200,12731.000,0.300,2123.000,0.500,404.000,1.000,193.000,5.000,0
"07/08/06","13:08:38","AMMA06",35902.000,"cc",28277.373,6.00,2827.738,1,6,0.100,20278.000,0.200,12848.000,0.300,2090.000,0.500,415.000,1.000,271.000,5.000,0
"07/08/06","13:08:44","AMMA06",36136.000,"cc",28300.330,6.00,2830.033,1,6,0.100,20563.000,0.200,12801.000,0.300,2119.000,0.500,427.000,1.000,226.000,5.000,0
"07/08/06","13:08:50","AMMA06",36403.000,"cc",28353.522,6.00,2835.352,1,6,0.100,20712.000,0.200,12887.000,0.300,2166.000,0.500,392.000,1.000,246.000,5.000,0
"07/08/06","13:08:56","AMMA06",35593.000,"cc",28319.109,6.00,2831.911,1,6,0.100,20212.000,0.200,12697.000,0.300,2075.000,0.500,376.000,1.000,233.000,5.000,0
"07/08/06","13:09:02","AMMA06",35781.000,"cc",28295.582,6.00,2829.558,1,6,0.100,20627.000,0.200,12646.000,0.300,2002.000,0.500,320.000,1.000,186.000,5.000,0
"07/08/06","13:09:08","AMMA06",35599.000,"cc",28332.926,6.00,2833.293,1,6,0.100,20237.000,0.200,12677.000,0.300,2032.000,0.500,424.000,1.000,229.000,5.000,0
"07/08/06","13:09:14","AMMA06",35937.000,"cc",28269.373,6.00,2826.938,1,6,0.100,20737.000,0.200,12634.000,0.300,2008.000,0.500,369.000,1.000,189.000,5.000,0
"07/08/06","13:09:20","AMMA06",35481.000,"cc",28328.465,6.00,2832.847,1,6,0.100,20303.000,0.200,12665.000,0.300,1937.000,0.500,382.000,1.000,194.000,5.000,0
"07/08/06","13:09:26","AMMA06",35315.000,"cc",28402.436,6.00,2840.244,1,6,0.100,20240.000,0.200,12622.000,0.300,1946.000,0.500,300.000,1.000,207.000,5.000,0
"07/08/06","13:09:32","AMMA06",35976.000,"cc",28323.164,6.00,2832.317,1,6,0.100,20468.000,0.200,12743.000,0.300,2174.000,0.500,391.000,1.000,200.000,5.000,0
"07/08/06","13:09:38","AMMA06",36633.000,"cc",28265.840,6.00,2826.584,1,6,0.100,20713.000,0.200,12775.000,0.300,2332.000,0.500,524.000,1.000,289.000,5.000,0
"07/08/06","13:09:44","AMMA06",36281.000,"cc",28298.236,6.00,2829.824,1,6,0.100,20497.000,0.200,12748.000,0.300,2246.000,0.500,520.000,1.000,270.000,5.000,0
"07/08/06","13:09:50","AMMA06",36049.000,"cc",28281.678,6.00,2828.168,1,6,0.100,20555.000,0.200,12680.000,0.300,2097.000,0.500,497.000,1.000,220.000,5.000,0
"07/08/06","13:09:56","AMMA06",36804.000,"cc",28294.063,6.00,2829.407,1,6,0.100,20977.000,0.200,12881.000,0.300,2138.000,0.500,540.000,1.000,268.000,5.000,0
"07/08/06","13:10:02","AMMA06",36351.000,"cc",28346.606,6.00,2834.661,1,6,0.100,20958.000,0.200,12574.000,0.300,2137.000,0.500,424.000,1.000,258.000,5.000,0
"07/08/06","13:10:08","AMMA06",36694.000,"cc",28309.557,6.00,2830.956,1,6,0.100,20853.000,0.200,12913.000,0.300,2169.000,0.500,494.000,1.000,265.000,5.000,0
"07/08/06","13:10:14","AMMA06",36582.000,"cc",28342.576,6.00,2834.258,1,6,0.100,20929.000,0.200,12748.000,0.300,2190.000,0.500,477.000,1.000,238.000,5.000,0
"07/08/06","13:10:20","AMMA06",37276.000,"cc",28321.182,6.00,2832.118,1,6,0.100,21464.000,0.200,12844.000,0.300,2118.000,0.500,531.000,1.000,319.000,5.000,0
"07/08/06","13:10:26","AMMA06",37828.000,"cc",28257.691,6.00,2825.769,1,6,0.100,22009.000,0.200,12829.000,0.300,2186.000,0.500,530.000,1.000,274.000,5.000,0
"07/08/06","13:10:32","AMMA06",42729.000,"cc",28299.131,6.00,2829.913,1,6,0.100,25965.000,0.200,13618.000,0.300,2265.000,0.500,573.000,1.000,308.000,5.000,0
"07/08/06","13:10:38","AMMA06",54073.000,"cc",28407.949,6.00,2840.795,1,6,0.100,36045.000,0.200,14830.000,0.300,2333.000,0.500,584.000,1.000,281.000,5.000,0
"07/08/06","13:10:44","AMMA06",43522.000,"cc",28295.928,6.00,2829.593,1,6,0.100,27367.000,0.200,13311.000,0.300,2136.000,0.500,448.000,1.000,260.000,5.000,0
"07/08/06","13:10:50","AMMA06",55956.000,"cc",28342.055,6.00,2834.206,1,6,0.100,37356.000,0.200,15192.000,0.300,2443.000,0.500,612.000,1.000,353.000,5.000,0
"07/08/06","13:10:56","AMMA06",66055.000,"cc",28318.734,6.00,2831.874,1,6,0.100,45279.000,0.200,16719.000,0.300,2762.000,0.500,867.000,1.000,428.000,5.000,0
"07/08/06","13:11:02","AMMA06",83429.000,"cc",28320.418,6.00,2832.042,1,6,0.100,60604.000,0.200,18942.000,0.300,2762.000,0.500,716.000,1.000,405.000,5.000,0
"07/08/06","13:11:08","AMMA06",72061.000,"cc",28313.705,6.00,2831.371,1,6,0.100,51051.000,0.200,17510.000,0.300,2525.000,0.500,636.000,1.000,339.000,5.000,0
"07/08/06","13:11:14","AMMA06",106497.000,"cc",28327.037,6.00,2832.704,1,6,0.100,80175.000,0.200,22524.000,0.300,2879.000,0.500,578.000,1.000,341.000,5.000,0
"07/08/06","13:11:20","AMMA06",85227.000,"cc",28312.363,6.00,2831.237,1,6,0.100,62437.000,0.200,19350.000,0.300,2585.000,0.500,562.000,1.000,293.000,5.000,0
"07/08/06","13:11:26","AMMA06",100598.000,"cc",28269.981,6.00,2826.998,1,6,0.100,75868.000,0.200,21410.000,0.300,2613.000,0.500,445.000,1.000,262.000,5.000,0
"07/08/06","13:11:32","AMMA06",100966.000,"cc",28314.873,6.00,2831.488,1,6,0.100,76036.000,0.200,21561.000,0.300,2629.000,0.500,463.000,1.000,277.000,5.000,0
"07/08/06","13:11:38","AMMA06",121696.000,"cc",28261.727,6.00,2826.173,1,6,0.100,94148.000,0.200,24049.000,0.300,2733.000,0.500,495.000,1.000,271.000,5.000,0
"07/08/06","13:11:44","AMMA06",168667.000,"cc",28346.283,6.00,2834.628,1,6,0.100,133470.000,0.200,31269.000,0.300,3143.000,0.500,503.000,1.000,282.000,5.000,0
"07/08/06","13:11:50","AMMA06",112759.000,"cc",28361.920,6.00,2836.192,1,6,0.100,86659.000,0.200,22773.000,0.300,2572.000,0.500,480.000,1.000,275.000,5.000,0
"07/08/06","13:11:56","AMMA06",100440.000,"cc",28282.768,6.00,2828.277,1,6,0.100,75872.000,0.200,21262.000,0.300,2592.000,0.500,470.000,1.000,244.000,5.000,0
"07/08/06","13:12:02","AMMA06",79619.000,"cc",28319.547,6.00,2831.955,1,6,0.100,58324.000,0.200,18381.000,0.300,2275.000,0.500,414.000,1.000,225.000,5.000,0
"07/08/06","13:12:08","AMMA06",70717.000,"cc",28303.221,6.00,2830.322,1,6,0.100,50782.000,0.200,17002.000,0.300,2307.000,0.500,405.000,1.000,221.000,5.000,0
"07/08/06","13:12:14","AMMA06",79742.000,"cc",28325.551,6.00,2832.555,1,6,0.100,58119.000,0.200,18476.000,0.300,2358.000,0.500,513.000,1.000,275.000,5.000,1.000
"07/08/06","13:12:20","AMMA06",165482.000,"cc",28292.256,6.00,2829.226,1,6,0.100,131738.000,0.200,30139.000,0.300,2931.000,0.500,458.000,1.000,216.000,5.000,0
"07/08/06","13:12:26","AMMA06",104567.000,"cc",28353.670,6.00,2835.367,1,6,0.100,79771.000,0.200,21732.000,0.300,2397.000,0.500,424.000,1.000,243.000,5.000,0
"07/08/06","13:12:32","AMMA06",58671.000,"cc",28320.381,6.00,2832.038,1,6,0.100,40226.000,0.200,15636.000,0.300,2170.000,0.500,417.000,1.000,222.000,5.000,0
"07/08/06","13:12:38","AMMA06",141682.000,"cc",28318.232,6.00,2831.824,1,6,0.100,111363.000,0.200,26756.000,0.300,2852.000,0.500,452.000,1.000,259.000,5.000,0
"07/08/06","13:12:44","AMMA06",131789.000,"cc",28351.287,6.00,2835.129,1,6,0.100,102849.000,0.200,25470.000,0.300,2765.000,0.500,466.000,1.000,239.000,5.000,0
"07/08/06","13:12:50","AMMA06",124343.000,"cc",28310.897,6.00,2831.090,1,6,0.100,96698.000,0.200,24359.000,0.300,2653.000,0.500,395.000,1.000,238.000,5.000,0
"07/08/06","13:12:56","AMMA06",120902.000,"cc",28335.398,6.00,2833.540,1,6,0.100,94314.000,0.200,23296.000,0.300,2608.000,0.500,447.000,1.000,237.000,5.000,0
"07/08/06","13:13:02","AMMA06",85747.000,"cc",28275.117,6.00,2827.512,1,6,0.100,63828.000,0.200,18909.000,0.300,2350.000,0.500,423.000,1.000,237.000,5.000,0
"07/08/06","13:13:08","AMMA06",39365.000,"cc",28293.936,6.00,2829.394,1,6,0.100,23861.000,0.200,12943.000,0.300,1982.000,0.500,373.000,1.000,206.000,5.000,0
"07/08/06","13:13:14","AMMA06",61196.000,"cc",28262.904,6.00,2826.291,1,6,0.100,42732.000,0.200,15585.000,0.300,2215.000,0.500,429.000,1.000,235.000,5.000,0
"07/08/06","13:13:20","AMMA06",44475.000,"cc",28366.231,6.00,2836.623,1,6,0.100,27809.000,0.200,13755.000,0.300,2203.000,0.500,480.000,1.000,228.000,5.000,0
"07/08/06","13:13:26","AMMA06",85360.000,"cc",28356.133,6.00,2835.614,1,6,0.100,63369.000,0.200,18883.000,0.300,2414.000,0.500,447.000,1.000,247.000,5.000,0
"07/08/06","13:13:32","AMMA06",125416.000,"cc",28308.354,6.00,2830.835,1,6,0.100,97750.000,0.200,24167.000,0.300,2768.000,0.500,466.000,1.000,265.000,5.000,0
"07/08/06","13:13:38","AMMA06",45118.000,"cc",28280.936,6.00,2828.094,1,6,0.100,28659.000,0.200,13784.000,0.300,2058.000,0.500,374.000,1.000,243.000,5.000,0
"07/08/06","13:13:44","AMMA06",102002.000,"cc",28326.197,6.00,2832.620,1,6,0.100,77471.000,0.200,21343.000,0.300,2535.000,0.500,407.000,1.000,246.000,5.000,0
"07/08/06","13:13:50","AMMA06",94171.000,"cc",28348.490,6.00,2834.849,1,6,0.100,70960.000,0.200,20029.000,0.300,2510.000,0.500,456.000,1.000,216.000,5.000,0
"07/08/06","13:13:56","AMMA06",63217.000,"cc",28362.856,6.00,2836.286,1,6,0.100,44201.000,0.200,16088.000,0.300,2324.000,0.500,385.000,1.000,219.000,5.000,0
"07/08/06","13:14:02","AMMA06",69252.000,"cc",28320.088,6.00,2832.009,1,6,0.100,49569.000,0.200,16830.000,0.300,2247.000,0.500,402.000,1.000,204.000,5.000,0
"07/08/06","13:14:08","AMMA06",51728.000,"cc",28282.289,6.00,2828.229,1,6,0.100,34157.000,0.200,14780.000,0.300,2222.000,0.500,354.000,1.000,215.000,5.000,0
"07/08/06","13:14:14","AMMA06",92536.000,"cc",28343.574,6.00,2834.358,1,6,0.100,69147.000,0.200,20399.000,0.300,2392.000,0.500,391.000,1.000,207.000,5.000,0